{"data":{"norad_id":66428,"epoch":"2026-09-20T06:55:27.411744Z","epoch_age_seconds":111664,"freshness":"FRESH","line1":"1 66428U 25259G   26263.28851171  .00001762  00000+0  73562-4 0  9993","line2":"2 66428  43.0022 255.2725 0001727 284.9045  75.1616 15.27573294 49257","mean_motion":15.27573294,"eccentricity":0.0001727,"inclination_deg":43.0022,"raan_deg":255.2725,"arg_perigee_deg":284.9045,"mean_anomaly_deg":75.1616,"bstar":7.3562e-5,"rev_number":4925,"period_min":94.267162541793,"perigee_km":481.88424598294,"apogee_km":484.25410659623,"semimajor_km":6861.2061762896,"source":"CELESTRAK","updated_at":"2026-09-21T09:00:35.907063Z"}}